PGT1548 LTFJ-LTBS

Flight info

Callsign PGT1548
Flight time N/A
Altitude 34000
Route ROXUK UT409 NUMTI UT241 DEN UW87 LAVTA W87 ATSAL
Aircraft A320/M-SDE3FGHIRWY/LB1

Departure

Time 2026-05-06 18:49
Airport Istanbul Sabiha Gökçen International Airport (LTFJ)

Arrival

Time N/A
Airport Dalaman International Airport (LTBS)
Time Latitude Longitude Altitude Speed Heading
2026-05-06 18:02 40.90645 29.31729 321 ft 0 kts 334°
2026-05-06 18:31 40.90632 29.31738 321 ft 4 kts 330°
2026-05-06 18:31 40.90609 29.31757 319 ft 4 kts 320°
2026-05-06 18:31 40.90591 29.31782 318 ft 4 kts 297°
2026-05-06 18:32 40.90587 29.31810 320 ft 2 kts 245°
2026-05-06 18:32 40.90587 29.31812 320 ft 0 kts 245°
2026-05-06 18:35 40.90583 29.31802 319 ft 5 kts 245°
2026-05-06 18:35 40.90571 29.31767 318 ft 4 kts 245°
2026-05-06 18:36 40.90562 29.31741 320 ft 3 kts 245°
2026-05-06 18:36 40.90552 29.31715 320 ft 8 kts 243°
2026-05-06 18:36 40.90521 29.31633 321 ft 9 kts 244°
2026-05-06 18:36 40.90495 29.31561 320 ft 8 kts 244°
2026-05-06 18:37 40.90472 29.31496 321 ft 7 kts 244°
2026-05-06 18:37 40.90450 29.31439 320 ft 6 kts 237°
2026-05-06 18:37 40.90412 29.31438 319 ft 9 kts 152°
2026-05-06 18:37 40.90353 29.31476 321 ft 9 kts 155°
2026-05-06 18:38 40.90304 29.31497 321 ft 7 kts 181°
2026-05-06 18:38 40.90264 29.31460 320 ft 10 kts 237°
2026-05-06 18:38 40.90235 29.31382 320 ft 9 kts 244°
2026-05-06 18:38 40.90200 29.31286 321 ft 13 kts 244°
2026-05-06 18:39 40.90166 29.31193 319 ft 10 kts 244°
2026-05-06 18:39 40.90136 29.31111 320 ft 10 kts 244°
2026-05-06 18:39 40.90110 29.31039 321 ft 5 kts 244°
2026-05-06 18:40 40.90106 29.31028 320 ft 3 kts 244°
2026-05-06 18:40 40.90074 29.30988 321 ft 6 kts 205°
2026-05-06 18:40 40.90017 29.30999 321 ft 13 kts 154°
2026-05-06 18:40 40.89942 29.31044 320 ft 11 kts 161°
2026-05-06 18:41 40.89867 29.31071 320 ft 10 kts 154°
2026-05-06 18:41 40.89805 29.31110 317 ft 12 kts 154°
2026-05-06 18:41 40.89743 29.31174 318 ft 9 kts 143°
2026-05-06 18:41 40.89699 29.31205 318 ft 9 kts 153°
2026-05-06 18:42 40.89629 29.31250 314 ft 9 kts 154°
2026-05-06 18:42 40.89577 29.31283 314 ft 8 kts 154°
2026-05-06 18:42 40.89520 29.31320 311 ft 10 kts 154°
2026-05-06 18:42 40.89452 29.31365 309 ft 12 kts 154°
2026-05-06 18:43 40.89377 29.31413 307 ft 10 kts 154°
2026-05-06 18:43 40.89316 29.31452 306 ft 9 kts 154°
2026-05-06 18:43 40.89266 29.31467 307 ft 7 kts 194°
2026-05-06 18:43 40.89233 29.31433 309 ft 6 kts 220°
2026-05-06 18:44 40.89185 29.31431 307 ft 5 kts 155°
2026-05-06 18:44 40.89144 29.31450 306 ft 10 kts 178°
2026-05-06 18:44 40.89109 29.31383 307 ft 9 kts 247°
2026-05-06 18:44 40.89069 29.31271 307 ft 21 kts 242°
2026-05-06 18:45 40.89013 29.31121 304 ft 18 kts 244°
2026-05-06 18:45 40.88961 29.30979 298 ft 15 kts 244°
2026-05-06 18:45 40.88911 29.30842 296 ft 18 kts 244°
2026-05-06 18:45 40.88859 29.30701 290 ft 17 kts 244°
2026-05-06 18:46 40.88805 29.30555 282 ft 18 kts 243°
2026-05-06 18:46 40.88754 29.30416 280 ft 12 kts 244°
2026-05-06 18:46 40.88721 29.30326 281 ft 8 kts 244°
2026-05-06 18:46 40.88684 29.30278 280 ft 7 kts 200°
2026-05-06 18:47 40.88643 29.30297 280 ft 6 kts 153°
2026-05-06 18:47 40.88591 29.30331 280 ft 8 kts 154°
2026-05-06 18:47 40.88553 29.30355 281 ft 4 kts 152°
2026-05-06 18:47 40.88545 29.30421 281 ft 10 kts 66°
2026-05-06 18:48 40.88583 29.30523 282 ft 20 kts 64°
2026-05-06 18:48 40.88746 29.30962 293 ft 88 kts 64°
2026-05-06 18:48 40.89098 29.31920 310 ft 142 kts 64°
2026-05-06 18:48 40.89584 29.33225 630 ft 165 kts 63°
2026-05-06 18:49 40.90076 29.34582 1383 ft 163 kts 69°
2026-05-06 18:49 40.90100 29.36116 1888 ft 180 kts 106°
2026-05-06 18:49 40.89737 29.37799 2306 ft 198 kts 103°
2026-05-06 18:49 40.89526 29.39599 2955 ft 201 kts 96°
2026-05-06 18:50 40.89406 29.41457 3590 ft 205 kts 94°
2026-05-06 18:50 40.89300 29.43350 4228 ft 209 kts 96°
2026-05-06 18:50 40.88821 29.45171 4874 ft 214 kts 124°
2026-05-06 18:50 40.87721 29.46487 5458 ft 217 kts 153°
2026-05-06 18:51 40.86350 29.47373 5932 ft 223 kts 155°
2026-05-06 18:51 40.84954 29.48252 5994 ft 222 kts 155°
2026-05-06 18:51 40.83558 29.49128 6007 ft 222 kts 155°
2026-05-06 18:51 40.82167 29.50003 6011 ft 222 kts 155°
2026-05-06 18:52 40.80774 29.50882 6011 ft 222 kts 155°
2026-05-06 18:52 40.79384 29.51760 6008 ft 222 kts 155°
2026-05-06 18:52 40.78030 29.52682 6005 ft 222 kts 148°
2026-05-06 18:52 40.76773 29.53862 6005 ft 222 kts 146°
2026-05-06 18:53 40.75360 29.54614 6011 ft 219 kts 166°
2026-05-06 18:53 40.73874 29.54996 5999 ft 216 kts 186°
2026-05-06 18:53 40.72395 29.54694 6011 ft 215 kts 192°
2026-05-06 18:53 40.70917 29.54364 6004 ft 216 kts 192°
2026-05-06 18:54 40.69440 29.54048 6001 ft 216 kts 192°
2026-05-06 18:54 40.67956 29.53737 5999 ft 216 kts 192°
2026-05-06 18:54 40.66465 29.53429 5999 ft 218 kts 192°
2026-05-06 18:54 40.64966 29.53119 5993 ft 218 kts 192°
2026-05-06 18:55 40.63472 29.52812 5994 ft 218 kts 192°
2026-05-06 18:55 40.61989 29.52434 5990 ft 215 kts 205°